Weather reports worldwide

Advertisment
Rheinstetten, Germany (10731): temperature & dewpoint: 20.09.2018 05:00:00 - 26.09.2018 05:00:00 (CEST)Rheinstetten, Germany (10731): temperature 5cm & temperature -5cm: 20.09.2018 05:00:00 - 26.09.2018 05:00:00 (CEST)Rheinstetten, Germany (10731): temperature -20cm & temperature -100cm: 20.09.2018 05:00:00 - 26.09.2018 05:00:00 (CEST)Rheinstetten, Germany (10731): wind speed & gusts: 20.09.2018 05:00:00 - 26.09.2018 05:00:00 (CEST)Rheinstetten, Germany (10731): wind direction: 20.09.2018 05:00:00 - 26.09.2018 05:00:00 (CEST)Rheinstetten, Germany (10731): reduced air pressure: 20.09.2018 05:00:00 - 26.09.2018 05:00:00 (CEST)Rheinstetten, Germany (10731): visibility: 20.09.2018 05:00:00 - 26.09.2018 05:00:00 (CEST)Rheinstetten, Germany (10731): sunshine duration: 20.09.2018 05:00:00 - 26.09.2018 05:00:00 (CEST)Rheinstetten, Germany (10731): precipitation: 20.09.2018 05:00:00 - 26.09.2018 05:00:00 (CEST)
Date & Time tt [°C] td [°C] tt 5cm [°C] tt -5cm [°C] tt -20cm [°C] tt -100cm [°C] ff [km/h] ff [kn] fx [km/h] fx [kn] dd ppp [hPa] vv [km] sd [min] rr [mm]
26.09.2018 05:00:00 6,6 1,2 4,8 7,1 12,6 19,3 14 7 21 11 ENE 1035,0 67 0 0,0
26.09.2018 04:00:00 - - - - - - - - - - - - - - -
26.09.2018 03:00:00 7,5 1,5 5,4 8,0 13,4 19,4 10 6 19 11 NE 1035,9 59 0 0,0
26.09.2018 02:00:00 7,9 1,6 6,2 8,5 13,9 19,4 14 7 19 10 ENE 1036,4 61 0 0,0
26.09.2018 01:00:00 8,7 1,9 6,3 9,1 14,4 19,4 12 7 16 9 NE 1036,9 50 0 0,0
26.09.2018 00:00:00 8,5 2,5 5,8 9,8 14,9 19,5 9 5 17 9 ENE 1037,4 54 0 0,0
25.09.2018 23:00:00 9,2 3,1 6,3 10,5 15,4 19,5 9 5 20 11 ENE 1037,8 61 0 0,0
25.09.2018 22:00:00 10,8 2,9 8,8 11,4 15,9 19,5 12 6 27 14 ENE 1037,5 60 0 0,0
25.09.2018 21:00:00 12,1 2,7 10,5 12,4 16,5 19,6 16 9 25 14 NE 1037,1 63 0 0,0
25.09.2018 20:00:00 12,9 2,4 10,7 13,7 16,9 19,6 13 7 27 15 NE 1036,6 64 3 0,0
25.09.2018 19:00:00 14,5 1,5 13,4 15,6 17,2 19,6 16 8 31 17 ENE 1036,4 50 57 0,0
25.09.2018 18:00:00 15,7 1,0 16,5 17,6 17,2 19,7 19 11 37 20 ENE 1036,4 61 60 0,0
25.09.2018 17:00:00 16,1 1,4 18,4 18,8 16,8 19,7 23 12 34 19 ENE 1036,8 53 59 0,0
25.09.2018 16:00:00 16,4 1,1 19,5 19,3 16,3 19,7 20 11 38 21 NE 1037,3 57 60 0,0
25.09.2018 15:00:00 16,0 1,4 19,5 19,1 15,6 19,8 17 9 31 17 ENE 1037,6 53 60 0,0
25.09.2018 14:00:00 15,9 0,8 20,0 18,0 14,9 19,8 24 13 38 20 NE 1037,8 54 59 0,0
25.09.2018 13:00:00 14,8 1,5 18,5 16,7 14,2 19,8 18 10 39 21 E 1038,2 68 60 0,0
25.09.2018 12:00:00 13,3 2,3 16,3 15,0 13,5 19,9 24 13 41 22 ENE 1038,5 48 59 0,0
25.09.2018 11:00:00 12,1 4,1 14,3 13,3 13,0 19,9 22 12 35 19 ENE 1038,7 27 60 0,0
25.09.2018 10:00:00 10,4 5,1 12,7 11,2 12,8 19,9 11 6 20 11 ENE 1038,5 17 60 0,0
25.09.2018 09:00:00 7,7 5,1 8,7 8,9 12,9 19,9 9 5 15 8 E 1038,4 23 60 0,0
25.09.2018 08:00:00 6,1 4,7 5,0 7,8 13,2 19,9 9 5 15 8 NE 1038,4 19 7 0,0
25.09.2018 07:00:00 4,9 4,0 2,9 8,0 13,6 20,0 8 4 11 6 NE 1037,8 17 0 0,0
25.09.2018 06:00:00 3,6 3,0 2,3 8,4 14,0 20,0 4 2 5 3 NNE 1037,7 25 0 0,0
25.09.2018 05:00:00 4,8 4,0 2,2 9,0 14,5 20,0 3 2 9 5 ESE 1037,5 38 0 0,0
25.09.2018 04:00:00 5,2 4,3 3,5 9,6 15,0 20,0 4 2 8 4 ENE 1037,4 30 0 0,0
25.09.2018 03:00:00 6,7 4,8 4,5 10,3 15,4 20,0 5 3 10 5 NE 1037,4 37 0 0,0
25.09.2018 02:00:00 7,5 4,9 5,5 10,9 15,9 20,1 7 4 11 6 E 1037,4 41 0 0,0
25.09.2018 01:00:00 9,9 4,9 7,7 11,6 16,4 20,1 8 5 20 11 NE 1037,0 49 0 0,0
25.09.2018 00:00:00 11,7 4,6 10,5 12,6 16,9 20,1 14 7 29 15 N 1036,4 50 0 0,0
24.09.2018 23:00:00 12,7 4,9 11,9 13,5 17,3 20,1 15 8 25 14 N 1036,0 63 0 0,0
24.09.2018 22:00:00 10,8 7,4 10,5 14,3 17,7 20,2 3 2 5 3 S 1035,7 50 0 0,0
24.09.2018 21:00:00 10,4 7,4 10,2 14,7 18,2 20,2 3 2 5 3 SSW 1035,1 42 0 0,0
24.09.2018 20:00:00 13,0 3,4 9,2 15,4 18,7 20,2 5 3 8 4 NNW 1034,3 58 5 0,0
24.09.2018 19:00:00 14,6 3,0 12,8 17,0 19,0 20,3 5 3 17 9 NW 1033,7 66 45 0,0
24.09.2018 18:00:00 15,9 1,7 17,6 19,0 19,1 20,3 12 7 18 10 NNW 1033,2 28 55 0,0
24.09.2018 17:00:00 15,9 1,5 18,8 20,7 18,9 20,3 8 4 24 13 NNW 1033,3 33 58 0,0
24.09.2018 16:00:00 16,5 1,9 21,1 21,8 18,4 20,4 12 7 26 14 N 1033,5 16 60 0,0
24.09.2018 15:00:00 15,5 1,4 20,9 21,2 17,8 20,4 9 5 21 12 NW 1033,6 18 50 0,0
24.09.2018 14:00:00 14,7 2,2 17,2 21,0 17,0 20,4 13 7 21 12 NNE 1034,1 50 53 0,0
24.09.2018 13:00:00 15,0 4,0 21,0 20,1 16,1 20,5 12 6 21 12 N 1034,5 20 54 0,0
24.09.2018 12:00:00 13,8 4,3 19,0 18,3 15,3 20,5 10 5 20 11 N 1034,4 16 58 0,0
24.09.2018 11:00:00 12,4 5,9 15,3 15,9 14,7 20,5 7 4 14 8 WSW 1034,5 25 60 0,0
24.09.2018 10:00:00 11,4 6,4 13,5 13,2 14,5 20,5 8 5 13 7 W 1033,8 23 60 0,0
24.09.2018 09:00:00 9,4 6,2 10,6 11,1 14,6 20,5 5 3 8 4 SW 1032,9 30 60 0,0
24.09.2018 08:00:00 7,3 7,0 6,4 10,1 15,0 20,5 6 3 8 4 SSW 1032,3 19 11 0,0
24.09.2018 07:00:00 7,3 6,2 5,3 10,6 15,4 20,6 4 2 7 4 SW 1031,1 38 0 0,0
24.09.2018 06:00:00 8,2 6,6 6,3 11,4 15,7 20,6 3 2 7 4 W 1029,9 40 0 0,0
24.09.2018 05:00:00 9,9 6,6 8,6 12,2 15,9 20,6 6 4 10 5 W 1028,9 70 0 0,0
24.09.2018 04:00:00 10,2 7,0 9,9 12,4 16,1 20,6 6 3 8 5 WSW 1028,3 70 0 0,0
24.09.2018 03:00:00 10,3 6,6 10,0 12,4 16,4 20,6 5 3 8 4 W 1027,6 70 0 0,0
24.09.2018 02:00:00 10,2 5,9 9,5 12,0 16,9 20,7 5 3 22 12 NNW 1026,3 70 0 0,0
24.09.2018 01:00:00 10,7 5,7 9,3 12,6 17,4 20,7 15 8 31 17 NNW 1024,5 70 0 0,0
24.09.2018 00:00:00 11,9 7,1 11,2 13,3 17,9 20,7 18 10 28 15 NW 1022,6 70 0 0,0
23.09.2018 23:00:00 12,3 8,5 11,4 14,2 18,4 20,7 11 6 22 12 WNW 1020,8 70 0 0,0
23.09.2018 22:00:00 13,3 9,1 12,5 15,2 18,8 20,7 14 7 32 17 NW 1018,4 70 0 0,0
23.09.2018 21:00:00 13,8 10,0 13,0 16,2 19,3 20,8 19 10 51 27 NNW 1015,7 70 0 0,0
23.09.2018 20:00:00 16,3 14,9 15,6 17,7 19,7 20,8 14 8 38 21 WSW 1011,1 70 0 1,7
23.09.2018 19:00:00 17,1 15,8 16,2 18,4 19,9 20,8 29 16 75 40 W 1009,1 2,7 0 11,1
23.09.2018 18:00:00 23,0 16,6 21,9 19,7 20,1 20,8 42 23 68 37 SW 1006,1 70 0 0,0
23.09.2018 17:00:00 22,6 16,9 21,3 20,7 20,0 20,9 47 25 78 42 SW 1006,2 49 0 2,2
23.09.2018 16:00:00 23,7 16,0 23,9 22,7 19,5 20,9 48 26 73 40 SW 1007,5 29 18 0,0
23.09.2018 15:00:00 24,0 16,1 25,3 22,4 18,9 20,9 48 26 72 39 SW 1008,7 15 27 0,0
23.09.2018 14:00:00 22,3 15,9 22,2 19,7 18,6 20,9 40 21 54 29 SW 1010,8 38 0 0,0
23.09.2018 13:00:00 20,5 16,4 20,6 18,6 18,3 21,0 36 20 55 30 SW 1011,8 52 0 0,0
23.09.2018 12:00:00 19,2 15,7 19,3 18,0 18,1 21,0 24 13 42 23 SW 1012,8 55 0 0,0
23.09.2018 11:00:00 18,0 15,3 17,3 17,7 17,9 21,0 27 14 53 29 SW 1013,6 70 1 0,0
23.09.2018 10:00:00 17,3 15,1 16,6 16,7 17,8 21,0 32 18 62 34 SW 1013,8 34 0 0,0
23.09.2018 09:00:00 18,2 13,7 17,4 16,0 17,8 21,0 26 14 37 20 SW 1013,5 70 0 0,0
23.09.2018 08:00:00 16,2 14,0 15,2 15,4 17,8 21,0 22 12 42 23 SW 1013,9 70 0 0,3
23.09.2018 07:00:00 14,2 13,2 13,7 15,1 17,9 21,0 14 8 24 13 WSW 1014,7 4,0 0 0,3
23.09.2018 06:00:00 12,3 11,6 12,4 15,1 18,1 21,1 5 3 7 4 SE 1015,3 41 0 0,0
23.09.2018 05:00:00 12,0 11,3 11,9 15,1 18,3 21,1 5 3 7 4 E 1016,3 48 0 0,1
23.09.2018 04:00:00 11,9 11,0 11,7 15,2 18,6 21,1 6 3 10 5 ESE 1017,7 21 0 0,5
23.09.2018 03:00:00 12,1 10,7 11,7 15,4 18,9 21,1 8 4 11 6 ESE 1018,9 70 0 0,1
23.09.2018 02:00:00 12,7 10,6 12,0 15,9 19,2 21,2 7 4 27 15 SE 1019,6 12 0 0,3
23.09.2018 01:00:00 14,5 9,2 14,1 16,3 19,5 21,2 17 9 27 15 SW 1020,0 70 0 0,0
23.09.2018 00:00:00 13,9 10,0 13,5 17,0 19,8 21,2 5 3 8 4 SSW 1020,3 70 0 0,0
22.09.2018 23:00:00 14,5 8,9 14,0 17,3 20,2 21,3 5 3 10 5 SSW 1020,5 70 0 0,0
22.09.2018 22:00:00 14,6 8,2 14,3 17,9 20,6 21,3 6 3 11 6 S 1020,6 60 0 0,0
22.09.2018 21:00:00 14,9 8,6 13,7 18,7 20,9 21,3 7 4 10 5 SSE 1020,8 48 0 0,0
22.09.2018 20:00:00 16,3 6,6 15,0 19,9 21,3 21,3 2 1 15 8 N 1020,6 57 0 0,0
22.09.2018 19:00:00 17,2 5,7 17,3 21,1 21,5 21,4 8 4 18 10 W 1020,6 57 0 0,0
22.09.2018 18:00:00 17,8 4,8 18,0 22,6 21,5 21,4 13 7 29 15 W 1021,0 63 0 0,0
22.09.2018 17:00:00 18,8 5,2 20,8 24,8 21,1 21,5 21 11 32 17 SW 1021,2 41 35 0,0
22.09.2018 16:00:00 19,1 4,6 22,5 25,5 20,4 21,5 18 10 35 19 WSW 1022,0 26 60 0,0
22.09.2018 15:00:00 18,8 6,0 22,2 25,0 19,5 21,5 16 9 31 17 WSW 1022,1 54 53 0,0
22.09.2018 14:00:00 18,8 6,8 23,5 24,0 18,5 21,5 18 10 29 16 SW 1023,1 26 52 0,0
22.09.2018 13:00:00 17,6 6,9 22,1 20,7 17,8 21,6 19 10 32 17 WSW 1023,8 32 44 0,0
22.09.2018 12:00:00 16,0 6,6 18,5 18,9 17,2 21,6 18 10 29 16 WSW 1024,3 32 57 0,0
22.09.2018 11:00:00 15,1 7,9 17,2 16,7 16,8 21,6 15 8 25 13 SW 1024,7 36 56 0,0
22.09.2018 10:00:00 13,5 8,7 14,7 14,5 16,6 21,6 12 7 16 9 SW 1024,5 39 20 0,0
22.09.2018 09:00:00 12,2 9,1 12,8 12,9 16,7 21,6 9 5 13 7 SSW 1025,0 41 10 0,0
22.09.2018 08:00:00 10,3 8,1 8,6 12,0 16,9 21,6 5 3 13 7 S 1024,4 39 0 0,0
22.09.2018 07:00:00 11,5 8,8 10,5 12,3 17,2 21,6 9 5 15 8 SW 1023,9 44 0 0,0
22.09.2018 06:00:00 11,2 8,5 9,5 12,3 17,4 21,7 7 4 18 10 SSW 1023,7 46 0 0,0
22.09.2018 05:00:00 12,1 8,3 10,8 12,5 17,8 21,7 14 8 21 11 SW 1023,4 52 0 0,0
22.09.2018 04:00:00 12,2 7,9 11,0 12,7 18,1 21,7 13 7 22 12 WSW 1023,2 55 0 0,0
22.09.2018 03:00:00 12,8 8,5 11,4 13,0 18,5 21,7 17 9 24 13 SW 1022,9 54 0 0,0
22.09.2018 02:00:00 12,4 9,5 11,2 13,5 18,9 21,7 11 6 22 12 SSW 1022,4 43 0 0,0
22.09.2018 01:00:00 12,7 9,7 11,6 13,8 19,3 21,7 16 8 22 12 WSW 1022,0 41 0 0,0
22.09.2018 00:00:00 13,0 10,2 11,8 14,3 19,8 21,7 16 8 30 16 SW 1021,4 40 0 0,0
21.09.2018 23:00:00 13,4 10,5 12,7 14,9 20,3 21,7 19 11 29 16 SW 1020,4 45 0 0,0
21.09.2018 22:00:00 13,4 10,8 12,8 15,4 20,9 21,7 21 11 30 16 SW 1019,6 44 0 0,0
21.09.2018 21:00:00 13,1 11,4 12,1 15,8 21,6 21,7 18 10 31 17 SW 1018,7 39 0 0,0
21.09.2018 20:00:00 13,4 11,7 12,4 17,0 22,3 21,7 21 12 32 17 SW 1017,5 48 0 0,0
21.09.2018 19:00:00 13,7 12,3 13,3 18,6 23,0 21,7 22 12 32 17 SW 1016,8 53 0 0,1
21.09.2018 18:00:00 13,8 12,4 13,3 20,2 23,7 21,7 16 9 51 28 SW 1015,4 7 0 1,9
21.09.2018 17:00:00 15,6 13,0 14,9 24,1 23,8 21,7 34 19 51 28 NW 1013,4 18 0 0,1
21.09.2018 16:00:00 25,2 10,8 26,2 26,2 23,6 21,7 28 15 44 24 WSW 1009,6 37 0 0,0
21.09.2018 15:00:00 25,3 10,4 26,3 26,2 23,3 21,7 21 11 53 28 WSW 1010,1 44 0 0,0
21.09.2018 14:00:00 25,7 13,7 27,3 26,9 22,7 21,7 23 12 40 22 W 1010,0 26 15 0,0
21.09.2018 13:00:00 25,2 14,3 26,4 25,6 22,0 21,7 17 9 39 21 WSW 1010,2 26 9 0,0
21.09.2018 12:00:00 25,6 13,9 26,8 24,9 21,3 21,7 24 13 39 21 WSW 1010,4 26 25 0,0
21.09.2018 11:00:00 25,2 13,8 27,4 22,2 20,9 21,7 24 13 36 20 WSW 1010,6 16 24 0,0
21.09.2018 10:00:00 19,9 14,1 20,2 19,8 20,7 21,7 8 4 13 7 SSW 1010,4 22 6 0,0
21.09.2018 09:00:00 18,2 12,8 19,8 18,8 20,7 21,7 6 3 11 6 SW 1010,6 19 50 0,0
21.09.2018 08:00:00 13,5 11,5 13,1 17,1 21,0 21,7 6 3 9 5 S 1011,1 14 9 0,0
21.09.2018 07:00:00 12,5 10,8 11,3 17,3 21,4 21,6 6 3 7 4 SE 1011,2 18 0 0,0
21.09.2018 06:00:00 12,5 10,6 11,4 17,6 21,8 21,6 3 2 5 3 SSW 1011,7 20 0 0,0
21.09.2018 05:00:00 12,9 11,0 11,2 18,1 22,2 21,6 0 0 8 5 N 1012,2 20 0 0,0
21.09.2018 04:00:00 13,7 11,2 12,4 18,6 22,6 21,6 7 4 9 5 SE 1012,8 22 0 0,0
21.09.2018 03:00:00 13,7 11,4 12,0 19,1 23,1 21,6 3 2 8 4 S 1013,3 22 0 0,0
21.09.2018 02:00:00 13,7 11,3 12,4 19,6 23,7 21,6 5 3 6 3 SSE 1013,6 21 0 0,0
21.09.2018 01:00:00 14,5 12,5 12,2 20,4 24,2 21,6 1 1 6 3 WSW 1013,9 20 0 0,0
21.09.2018 00:00:00 15,4 12,5 12,8 21,3 24,9 21,6 4 2 5 3 WSW 1014,1 21 0 0,0
20.09.2018 23:00:00 16,6 12,6 14,3 22,4 25,5 21,5 3 2 5 3 S 1014,6 26 0 0,0
20.09.2018 22:00:00 18,2 13,4 15,1 23,7 26,1 21,6 3 2 8 4 SSW 1015,1 24 0 0,0
20.09.2018 21:00:00 19,7 13,1 17,9 25,2 26,7 21,6 8 4 9 5 SE 1015,4 27 0 0,0
20.09.2018 20:00:00 23,5 14,1 19,5 27,2 27,2 21,6 4 2 7 4 SW 1015,2 30 5 0,0
20.09.2018 19:00:00 27,9 12,9 26,9 29,8 27,4 21,6 6 3 16 8 WSW 1015,2 44 60 0,0
20.09.2018 18:00:00 29,0 12,2 30,2 31,8 27,3 21,6 13 7 26 14 W 1015,6 34 60 0,0
20.09.2018 17:00:00 29,6 11,7 32,0 33,2 26,8 21,6 15 8 26 14 WSW 1016,2 23 60 0,0
20.09.2018 16:00:00 29,6 12,1 32,9 33,7 26,0 21,6 14 8 29 16 WSW 1016,7 24 60 0,0
20.09.2018 15:00:00 28,8 12,0 33,1 33,3 25,1 21,5 21 11 40 22 SW 1017,4 18 60 0,0
20.09.2018 14:00:00 27,8 12,3 32,3 32,1 24,0 21,5 19 10 27 15 W 1018,4 21 60 0,0
20.09.2018 13:00:00 27,4 12,9 31,5 30,3 22,9 21,5 16 9 25 14 WSW 1019,0 15 60 0,0
20.09.2018 12:00:00 25,1 13,9 29,1 27,5 22,0 21,5 11 6 20 11 SW 1020,0 16 60 0,0
20.09.2018 11:00:00 23,8 14,3 27,2 24,2 21,4 21,5 13 7 20 11 SW 1020,4 18 60 0,0
20.09.2018 10:00:00 21,6 14,3 23,9 21,2 21,1 21,5 14 7 20 11 SSW 1020,2 15 60 0,0
20.09.2018 09:00:00 18,5 14,2 18,9 19,0 21,2 21,5 11 6 14 8 SW 1020,4 16 43 0,0
20.09.2018 08:00:00 16,7 13,8 16,2 18,3 21,4 21,4 6 3 12 6 SSW 1020,4 17 5 0,0
20.09.2018 07:00:00 16,0 13,3 14,7 18,3 21,8 21,4 9 5 11 6 SSW 1020,0 19 0 0,0
20.09.2018 06:00:00 15,4 13,3 13,7 18,6 22,1 21,4 6 4 8 4 SW 1019,8 19 0 0,0
20.09.2018 05:00:00 15,5 13,1 13,5 19,0 22,5 21,4 6 3 8 4 SW 1019,8 20 0 0,0

tt = temperature
td = dewpoint
tt 5cm = temperature 5cm
tt -5cm = temperature -5cm
tt -20cm = temperature -20cm
tt -100cm = temperature -100cm
ff = wind speed
fx = gusts
dd = wind direction
ppp = reduced air pressure
vv = visibility
sd = sunshine duration
rr = precipitation

Next stations